EW1884 Weather Reports


time (UTC)temp
F
wind
direction
speed
knots
gust
knots
rain 1hr
in
rain 24hr
in
rain mn
in
humidity
%
barometer
mb
20260508122517 56 0 2.6 7.0 0.00 0.00 0.00 44 1019.6
20260508121517 56 0 1.7 5.2 0.00 0.01 0.00 44 1019.7
20260508120558 56 0 0.9 3.5 0.00 0.02 0.00 44 1019.8
20260508115537 57 0 1.7 7.0 0.00 0.02 0.00 41 1019.8
20260508114517 58 0 2.6 5.2 0.00 0.02 0.00 43 1019.8
20260508113537 57 0 3.5 7.8 0.00 0.02 0.00 41 1019.9
20260508112517 56 0 0.9 5.2 0.00 0.02 0.00 45 1019.9
20260508111517 56 0 1.7 5.2 0.00 0.02 0.00 44 1020.0
20260508110517 55 0 0.9 4.3 0.00 0.02 0.00 46 1020.0
20260508105517 54 0 1.7 7.0 0.00 0.02 0.00 47 1020.0
20260508104517 53 0 4.3 8.7 0.00 0.02 0.00 47 1020.0
20260508103517 52 0 4.3 9.6 0.00 0.02 0.00 47 1020.0
20260508102517 53 0 4.3 10.4 0.00 0.02 0.00 47 1020.0
20260508101517 52 0 5.2 11.3 0.00 0.02 0.00 45 1019.8
20260508100517 53 0 3.5 7.8 0.00 0.02 0.00 45 1019.9
20260508095517 52 0 2.6 7.0 0.00 0.03 0.00 49 1020.0
20260508094517 51 0 4.3 8.7 0.00 0.03 0.00 49 1019.8
20260508093517 51 0 1.7 4.3 0.00 0.03 0.00 52 1019.9
20260508092517 50 0 2.6 8.7 0.00 0.04 0.00 53 1020.0
20260508091517 50 0 3.5 9.6 0.00 0.04 0.00 52 1019.9
20260508090517 49 0 7.0 12.2 0.00 0.04 0.00 50 1020.2
20260508085517 49 0 7.0 11.3 0.00 0.04 0.00 51 1020.3
20260508084517 50 0 4.3 7.8 0.00 0.04 0.00 50 1020.1
20260508083517 49 0 5.2 7.8 0.00 0.04 0.00 52 1020.4
20260508082517 49 0 5.2 11.3 0.00 0.04 0.00 53 1020.4
20260508081517 48 0 6.1 15.6 0.00 0.04 0.00 55 1020.5
20260508080518 48 0 6.1 11.3 0.00 0.04 0.00 55 1020.5
20260508075517 48 0 3.5 7.8 0.00 0.04 0.00 57 1020.5
20260508074517 47 0 3.5 8.7 0.00 0.04 0.00 57 1020.6
20260508073517 47 0 4.3 9.6 0.00 0.04 0.00 57 1020.6
20260508072519 47 0 5.2 9.6 0.00 0.04 0.00 57 1020.6
20260508071517 46 0 2.6 11.3 0.00 0.04 0.00 59 1020.5
20260508070518 46 0 1.7 5.2 0.00 0.04 0.00 61 1020.5
20260508065518 45 0 0.9 3.5 0.00 0.04 0.00 62 1020.4
20260508064519 45 0 2.6 7.0 0.00 0.04 0.00 62 1020.3
20260508063537 45 0 2.6 8.7 0.00 0.04 0.00 62 1020.4
20260508062517 45 0 2.6 4.3 0.00 0.04 0.00 63 1020.6
20260508061518 45 0 2.6 4.3 0.00 0.04 0.00 64 1020.6
20260508060516 45 0 4.3 10.4 0.00 0.04 0.00 64 1020.6
20260508055516 44 0 3.5 7.8 0.00 0.04 0.00 64 1020.6
20260508054516 44 0 2.6 7.0 0.00 0.04 0.00 65 1020.7
20260508053516 44 0 2.6 10.4 0.00 0.04 0.00 64 1020.7
20260508052536 43 0 1.7 4.3 0.00 0.04 0.00 65 1020.7
20260508051516 43 0 1.7 7.0 0.00 0.04 0.00 65 1020.6
20260508050536 43 0 1.7 3.5 0.00 0.05 0.00 66 1020.6
20260508045516 43 0 1.7 9.6 0.00 0.05 0.00 65 1020.8
20260508044516 43 0 1.7 7.8 0.00 0.06 0.00 64 1020.8
20260508043516 43 0 1.7 10.4 0.00 0.06 0.00 64 1020.9
20260508042516 43 0 1.7 4.3 0.00 0.06 0.00 65 1021.0
20260508041516 42 0 1.7 4.3 0.00 0.07 0.00 66 1021.0
20260508040516 42 0 0.9 2.6 0.00 0.09 0.00 68 1021.1
20260508035516 42 0 0.9 2.6 0.00 0.13 0.00 69 1021.3
20260508034516 41 0 0.9 3.5 0.00 0.15 0.00 71 1021.3
20260508033516 41 0 0.9 2.6 0.00 0.15 0.00 72 1021.5
20260508032516 42 0 0.9 2.6 0.00 0.15 0.00 71 1021.5
20260508031516 42 0 4.3 9.6 0.00 0.15 0.00 70 1021.6
20260508030536 42 0 4.3 8.7 0.00 0.15 0.00 70 1021.5
20260508025536 41 0 3.5 7.8 0.00 0.16 0.00 71 1021.6
20260508024516 41 0 3.5 7.8 0.00 0.16 0.00 72 1021.6
20260508023516 41 0 2.6 5.2 0.00 0.17 0.00 72 1021.6
20260508022516 41 0 2.6 7.0 0.00 0.18 0.00 73 1021.8
20260508021516 41 0 2.6 7.8 0.00 0.19 0.00 74 1021.8
20260508020516 40 0 3.5 7.0 0.00 0.19 0.00 76 1021.8
20260508015556 40 0 2.6 5.2 0.00 0.19 0.00 76 1021.8
20260508014516 40 0 2.6 4.3 0.00 0.19 0.00 76 1021.9
20260508013516 40 0 2.6 4.3 0.00 0.20 0.00 76 1022.1
20260508012517 41 0 2.6 5.2 0.00 0.20 0.00 75 1022.0
20260508011517 41 0 2.6 7.0 0.00 0.21 0.00 74 1022.1
20260508010516 42 0 5.2 9.6 0.00 0.22 0.00 73 1022.1
20260508005516 42 0 5.2 8.7 0.00 0.23 0.00 72 1022.0
20260508004516 42 0 5.2 8.7 0.00 0.24 0.00 73 1022.2
20260508003516 42 0 5.2 8.7 0.00 0.24 0.00 74 1022.3
20260508002515 42 0 5.2 8.7 0.00 0.24 0.00 74 1022.3
20260508001516 42 0 4.3 8.7 0.00 0.24 0.00 75 1022.2
20260508000517 41 0 5.2 8.7 0.00 0.24 0.00 76 1022.3
20260507235518 41 0 5.2 7.8 0.00 0.24 0.00 77 1022.3
20260507234518 41 0 4.3 7.0 0.00 0.24 0.00 77 1022.4
20260507233518 41 0 3.5 5.2 0.00 0.24 0.00 78 1022.4
20260507232519 41 0 3.5 7.0 0.00 0.24 0.00 78 1022.4
20260507231517 41 0 5.2 8.7 0.00 0.24 0.00 79 1022.4
20260507230518 41 0 4.3 7.0 0.00 0.24 0.00 80 1022.4
20260507225517 40 0 4.3 7.8 0.00 0.24 0.00 80 1022.4
20260507224538 40 0 2.6 5.2 0.00 0.24 0.00 81 1022.4
20260507223517 41 0 1.7 3.5 0.00 0.24 0.00 81 1022.4
20260507222517 40 0 2.6 6.1 0.00 0.24 0.00 81 1022.4
20260507221517 40 0 1.7 5.2 0.00 0.24 0.00 81 1022.4
20260507220517 41 0 2.6 5.2 0.00 0.24 0.00 81 1022.3
20260507215516 41 0 1.7 4.3 0.00 0.24 0.24 81 1022.3
20260507214516 41 0 5.2 7.8 0.00 0.24 0.24 81 1022.3
20260507213516 41 0 4.3 7.0 0.00 0.24 0.24 81 1022.2
20260507212516 41 0 3.5 6.1 0.00 0.24 0.24 81 1022.4
20260507211516 41 0 2.6 5.2 0.00 0.24 0.24 81 1022.3
20260507210536 41 0 1.7 3.5 0.00 0.24 0.24 80 1022.1
20260507205516 41 0 1.7 3.5 0.00 0.24 0.24 80 1021.9
20260507204516 41 0 1.7 3.5 0.00 0.24 0.24 79 1022.0
20260507203536 41 0 1.7 2.6 0.00 0.24 0.24 79 1022.0
20260507202516 42 0 1.7 2.6 0.00 0.24 0.24 79 1021.9
20260507201516 42 0 0.9 1.7 0.00 0.24 0.24 79 1021.8
20260507200516 42 0 0.9 1.7 0.00 0.24 0.24 79 1021.9
20260507195536 42 0.0 1.7 0.00 0.24 0.24 79 1021.8
20260507194536 42 0 0.9 1.7 0.00 0.24 0.24 78 1021.8
20260507193516 43 0.0 0.9 0.00 0.24 0.24 77 1021.7
20260507192537 44 0 0.9 2.6 0.00 0.24 0.24 75 1021.6
20260507191516 45 0 1.7 2.6 0.00 0.24 0.24 75 1021.5
20260507190516 45 0 1.7 3.5 0.00 0.24 0.24 76 1021.4
20260507185516 45 0 2.6 4.3 0.00 0.24 0.24 75 1021.5
20260507184516 46 0 1.7 3.5 0.00 0.24 0.24 75 1021.4
20260507183516 46 0 1.7 3.5 0.00 0.24 0.24 75 1021.3
20260507182516 46 0 1.7 3.5 0.00 0.24 0.24 76 1021.3
20260507181516 45 0 2.6 4.3 0.00 0.24 0.24 76 1021.3
20260507180516 46 0 2.6 5.2 0.00 0.24 0.24 77 1021.4
20260507175516 45 0 2.6 5.2 0.00 0.24 0.24 78 1021.3
20260507174516 45 0 3.5 5.2 0.00 0.24 0.24 78 1021.3
20260507173516 45 0 4.3 7.0 0.00 0.24 0.24 77 1021.3
20260507172516 46 0 3.5 5.2 0.00 0.24 0.24 76 1021.1
20260507171516 46 0 3.5 5.2 0.00 0.24 0.24 77 1021.1
20260507170516 46 0 3.5 7.8 0.00 0.24 0.24 77 1021.1
20260507165536 46 0 3.5 7.0 0.00 0.24 0.24 77 1021.1
20260507164516 46 0 4.3 7.8 0.00 0.24 0.24 78 1021.0
20260507163515 46 0 5.2 9.6 0.00 0.24 0.24 77 1021.0
20260507162515 46 0 4.3 7.0 0.00 0.24 0.24 77 1020.8
20260507161535 46 0 5.2 8.7 0.00 0.24 0.24 77 1020.9
20260507160515 46 0 5.2 8.7 0.00 0.24 0.24 75 1021.0
20260507155518 46 0 5.2 8.7 0.00 0.24 0.24 75 1020.9
20260507154537 46 0 5.2 8.7 0.00 0.24 0.24 77 1021.0
20260507153518 46 0 4.3 8.7 0.00 0.24 0.24 76 1020.8
20260507152517 45 0 3.5 5.2 0.00 0.24 0.24 76 1020.8
20260507151538 45 0 5.2 8.7 0.00 0.24 0.24 76 1020.8
20260507150518 45 0 5.2 8.7 0.00 0.24 0.24 78 1020.6
20260507145518 44 0 7.8 13.0 0.00 0.24 0.24 80 1020.6
20260507144517 44 0 4.3 11.3 0.00 0.24 0.24 80 1020.5
20260507143517 45 0 6.1 9.6 0.00 0.24 0.24 83 1020.7
20260507142517 43 0 7.8 12.2 0.00 0.24 0.24 84 1020.5
20260507141518 43 0 11.3 16.5 0.00 0.24 0.24 86 1020.3
20260507140537 42 0 10.4 15.6 0.00 0.24 0.24 86 1020.2
20260507135538 42 0 10.4 15.6 0.00 0.24 0.24 87 1020.1
20260507134518 42 0 13.9 19.1 0.00 0.24 0.24 86 1020.0
20260507133519 43 0 13.0 19.1 0.00 0.24 0.24 87 1019.9
20260507132519 44 0 12.2 17.4 0.00 0.24 0.24 87 1019.9
20260507131520 43 0 10.4 19.1 0.01 0.24 0.24 87 1019.9
20260507130518 43 0 10.4 16.5 0.02 0.24 0.24 87 1019.8
20260507125538 42 0 10.4 16.5 0.02 0.24 0.24 87 1019.6
20260507124517 41 0 7.8 13.0 0.02 0.24 0.24 88 1019.6
20260507123557 41 0 9.6 14.8 0.02 0.24 0.24 89 1019.6